Flag for U.S.A. Weather past 2 weeks in Cleveland, Ohio, U.S.A.

Now
40 °F

Overcast.


Feels Like: 32 °F
Forecast: 36 / 46 °F
Wind: 14 mph from West

Location: Cleveland-Hopkins International Airport

Current Time: Mar 30, 2015 at 9:43:25 AM

Latest Report: Mar 30, 2015 at 8:51 AM


Visibility: 10 mi

Pressure: 29.95 "Hg

Humidity: 70%

Dew point: 31 °F

Location of ClevelandLocation

Historic Weather in Cleveland — Graph

°F

Cleveland temperature yesterday

Maximum temperature yesterday: 44 °F (at 5:51 PM)
Minimum temperature yesterday: 19 °F (at 2:51 AM)
Average temperature yesterday: 33 °F

Past Weeks' High & Low Weather Summary

 TemperatureHumidityPressure
High60 °F (Mar 16, 1:51 PM)97% (Mar 26, 8:51 AM)30.39 "Hg (Mar 26, 8:51 AM)
Low16 °F (Mar 28, 4:51 AM)28% (Mar 29, 5:51 PM)29.72 "Hg (Mar 17, 2:51 AM)
Average35 °F65%30.15 "Hg
* Reported Mar 15 7:51 AM — Mar 30 7:51 AM, Cleveland, Weather by CustomWeather, © 2015

Note: Actual official high and low records may vary slightly from our data, if they occured in-between our weather recording intervals... More about our weather records

Advertising

Cleveland weather history for previous 24 hours

 ConditionsComfort  
Time TempWeatherWind HumidityBarometerVisibility
7:51 AM
Mon, Mar 30
38 °FPassing clouds.12 mph76%29.92 "Hg10 mi
6:51 AM39 °FPassing clouds.14 mph73%29.90 "Hg10 mi
5:51 AM41 °FOvercast.18 mph67%29.87 "Hg10 mi
4:51 AM42 °FOvercast.15 mph68%29.85 "Hg10 mi
3:51 AM42 °FOvercast.18 mph71%29.85 "Hg10 mi
2:51 AM43 °FMostly cloudy.25 mph76%29.83 "Hg10 mi
1:51 AM40 °FOvercast.13 mph86%29.83 "Hg10 mi
1:02 AM40 °FLight rain. Mostly cloudy.15 mph80%29.83 "Hg8 mi
12:51 AM40 °FLight rain. Mostly cloudy.14 mph77%29.85 "Hg8 mi
11:51 PM
Sun, Mar 29
39 °FOvercast.20 mph73%29.87 "Hg10 mi
10:51 PM37 °FLight rain. Overcast.17 mph82%29.93 "Hg7 mi
9:51 PM42 °FLight rain. Mostly cloudy.23 mph47%29.96 "Hg10 mi
8:51 PM43 °FMostly cloudy.15 mph29%29.94 "Hg10 mi
7:51 PM43 °FOvercast.14 mph28%29.96 "Hg10 mi
6:51 PM43 °FMostly cloudy.18 mph29%29.96 "Hg10 mi
5:51 PM44 °FHigh level clouds.22 mph28%29.98 "Hg10 mi
4:51 PM43 °FHigh level clouds.16 mph29%30.06 "Hg10 mi
3:51 PM43 °FHigh level clouds.18 mph34%30.11 "Hg10 mi
2:51 PM42 °FHigh level clouds.14 mph35%30.17 "Hg10 mi
1:51 PM41 °FPartly sunny.15 mph38%30.24 "Hg10 mi
12:51 PM39 °FScattered clouds.17 mph38%30.30 "Hg10 mi
11:51 AM37 °FScattered clouds.17 mph41%30.32 "Hg10 mi
10:51 AM35 °FPassing clouds.12 mph44%30.34 "Hg10 mi
9:51 AM30 °FPassing clouds.14 mph56%30.36 "Hg10 mi
Weather by CustomWeather, © 2015

See weather overviewHow to use our weather pages